Weather History for Estherville, IA

Change the Weather History Date:

Sunday, January 15, 2012

  Actual Average Record
Temperature  
Mean Temperature 31 °F 15 °F  
Max Temperature 47 °F 24 °F 49 °F (1990)
Min Temperature 14 °F 7 °F -27 °F (1972)
Degree Days  
Heating Degree Days 34 50  
Month to date heating degree days 567 745  
Since 1 July heating degree days 3253 3888  
Cooling Degree Days 0 0  
Month to date cooling degree days 0 0  
Year to date cooling degree days 0 0  
Moisture  
Dew Point 21 °F    
Average Humidity 67    
Maximum Humidity 92    
Minimum Humidity 42    
Precipitation  
Precipitation 0.00 in 0.02 in 0.65 in (1952)
Month to date precipitation T 0.13  
Year to date precipitation T  
Sea Level Pressure  
Sea Level Pressure 29.86 in    
Wind  
Wind Speed 14 mph (South)    
Max Wind Speed 30 mph    
Max Gust Speed 37 mph    
Visibility 10 miles    
Events      
T = Trace of Precipitation, MM = Missing Value Source: NWS Daily Summary

Daily Weather History Graph

Daily Weather History Graph

Search for Another Location

Airport:

Trip Planner

Search our weather history database for the weather conditions in past years. The results will help you decide how hot, cold, wet, or windy it might be!

Date:

Astronomy

Jan. 15, 2012 Rise Set
Actual Time 7:48 AM CST 5:08 PM CST
Civil Twilight 7:17 AM CST 5:39 PM CST
Nautical Twilight 6:41 AM CST 6:15 PM CST
Astronomical Twilight 6:07 AM CST 6:49 PM CST
Moon No Moon Rise 10:52 AM CST (1/15)
Length of Visible Light 10h 22m
Length of Day
9h 19m
Waning Gibbous, 57% of the Moon is Illuminated
Jan 15
Waning Gibbous
Jan 16
Last Quarter
Jan 23
New
Jan 30
First Quarter
Feb 7
Full

Hourly Weather History & Observations

Time (CST) Temp. Windchill Dew Point Humidity Pressure Visibility Wind Dir Wind Speed Gust Speed Precip Events Conditions
12:52 AM 16.0 °F 7.4 °F 12.9 °F 88% 30.11 in 10.0 mi South 5.8 mph - N/A   Clear
1:52 AM 16.0 °F 5.3 °F 12.9 °F 88% 30.10 in 10.0 mi South 8.1 mph - N/A   Partly Cloudy
2:52 AM 16.0 °F 6.3 °F 14.0 °F 92% 30.07 in 10.0 mi South 6.9 mph - N/A   Clear
3:52 AM 19.9 °F 9.3 °F 17.1 °F 89% 30.06 in 10.0 mi SE 9.2 mph - N/A   Clear
4:52 AM 21.0 °F 8.6 °F 17.1 °F 85% 30.04 in 10.0 mi SSE 12.7 mph - N/A   Mostly Cloudy
5:52 AM 23.0 °F 10.6 °F 19.0 °F 85% 30.04 in 10.0 mi SSE 13.8 mph - N/A   Clear
6:52 AM 25.0 °F 11.3 °F 19.0 °F 78% 29.99 in 10.0 mi SSE 18.4 mph - N/A   Clear
7:52 AM 25.0 °F 11.7 °F 19.0 °F 78% 29.96 in 10.0 mi SSE 17.3 mph - N/A   Clear
8:52 AM 28.0 °F 14.3 °F 19.0 °F 69% 29.93 in 10.0 mi SSE 21.9 mph 29.9 mph N/A   Clear
9:52 AM 32.0 °F 19.8 °F 21.0 °F 64% 29.92 in 10.0 mi South 20.7 mph 31.1 mph N/A   Clear
10:52 AM 37.0 °F 24.9 °F 23.0 °F 57% 29.89 in 10.0 mi South 27.6 mph 34.5 mph N/A   Clear
11:52 AM 39.0 °F 28.3 °F 24.1 °F 55% 29.83 in 10.0 mi South 24.2 mph 33.4 mph N/A   Clear
12:52 PM 44.1 °F 35.0 °F 26.1 °F 49% 29.78 in 10.0 mi South 24.2 mph 31.1 mph N/A   Clear
1:52 PM 45.0 °F 36.0 °F 24.1 °F 44% 29.74 in 10.0 mi South 25.3 mph 33.4 mph N/A   Clear
2:52 PM 46.0 °F 38.0 °F 24.1 °F 42% 29.72 in 10.0 mi South 21.9 mph 28.8 mph N/A   Clear
3:52 PM 46.9 °F - 25.0 °F 42% 29.71 in 10.0 mi South 16.1 mph - N/A   Clear
5:52 PM 37.0 °F 33.3 °F 24.1 °F 59% 29.73 in 10.0 mi South 4.6 mph - N/A   Clear
6:52 PM 32.0 °F 24.2 °F 24.1 °F 73% 29.72 in 10.0 mi SSE 9.2 mph - N/A   Clear
7:52 PM 35.1 °F 27.9 °F 25.0 °F 67% 29.71 in 10.0 mi South 9.2 mph - N/A   Clear
8:52 PM 32.0 °F 24.8 °F 24.1 °F 73% 29.71 in 10.0 mi South 8.1 mph - N/A   Clear
9:52 PM 33.1 °F 24.9 °F 24.1 °F 70% 29.70 in 10.0 mi South 10.4 mph - N/A   Clear
10:52 PM 30.0 °F 26.5 °F 23.0 °F 75% 29.71 in 10.0 mi SE 3.5 mph - N/A   Clear
11:52 PM 28.0 °F 24.2 °F 23.0 °F 81% 29.70 in 10.0 mi SSE 3.5 mph - N/A   Clear